Time,TemperatureF,DewpointF,PressureIn,WindDirection,WindDirectionDegrees,WindSpeedMPH,WindSpeedGustMPH,Humidity,HourlyPrecipIn,Conditions,Clouds,dailyrainin,SoftwareType,DateUTC
2013-08-23 00:00:00,62.2,30.5,30.02,East,101,0.0,0.0,30,0.00,,CLR,0.00,VWS V14.01,2013-08-23 05:00:00,
2013-08-23 00:06:00,62.4,29.8,30.02,East,101,0.0,0.0,29,0.00,,FEW080,0.00,VWS V14.01,2013-08-23 05:06:00,
2013-08-23 00:12:00,62.6,29.9,30.02,East,101,0.0,0.0,29,0.00,,FEW080,0.00,VWS V14.01,2013-08-23 05:12:00,
2013-08-23 00:18:00,62.6,29.9,30.05,East,101,0.0,0.0,29,0.00,,FEW080,0.00,VWS V14.01,2013-08-23 05:18:00,
2013-08-23 00:23:00,62.4,30.6,30.05,East,101,0.0,0.0,30,0.00,,FEW080,0.00,VWS V14.01,2013-08-23 05:23:00,
2013-08-23 00:28:00,62.2,30.5,30.05,East,101,0.0,0.0,30,0.00,,FEW080,0.00,VWS V14.01,2013-08-23 05:28:00,
2013-08-23 00:34:00,61.9,30.9,30.02,East,101,0.0,0.0,31,0.00,,FEW080,0.00,VWS V14.01,2013-08-23 05:34:00,
2013-08-23 00:39:00,61.7,30.8,30.02,East,101,0.0,0.0,31,0.00,,FEW080,0.00,VWS V14.01,2013-08-23 05:39:00,
2013-08-23 00:44:00,61.3,31.2,30.02,East,101,0.0,0.0,32,0.00,,FEW080,0.00,VWS V14.01,2013-08-23 05:44:00,
2013-08-23 00:49:00,61.0,30.9,30.05,East,101,0.0,0.0,32,0.00,,FEW080,0.00,VWS V14.01,2013-08-23 05:49:00,
2013-08-23 00:55:00,60.6,32.1,30.05,East,101,0.0,0.0,34,0.00,,FEW080,0.00,VWS V14.01,2013-08-23 05:55:00,
2013-08-23 01:01:00,60.3,31.8,30.05,East,101,0.0,0.0,34,0.00,,CLR,0.00,VWS V14.01,2013-08-23 06:01:00,
2013-08-23 01:06:00,59.9,32.2,30.05,East,101,0.0,0.0,35,0.00,,CLR,0.00,VWS V14.01,2013-08-23 06:06:00,
2013-08-23 01:11:00,59.5,31.9,30.05,East,101,0.0,0.0,35,0.00,,CLR,0.00,VWS V14.01,2013-08-23 06:11:00,
2013-08-23 01:16:00,59.2,31.6,30.05,East,101,0.0,0.0,35,0.00,,CLR,0.00,VWS V14.01,2013-08-23 06:16:00,
2013-08-23 01:22:00,59.0,32.1,30.05,East,101,0.0,0.0,36,0.00,,CLR,0.00,VWS V14.01,2013-08-23 06:22:00,
2013-08-23 01:27:00,58.8,32.0,30.05,East,101,0.0,0.0,36,0.00,,CLR,0.00,VWS V14.01,2013-08-23 06:27:00,
2013-08-23 01:33:00,58.5,32.3,30.05,East,101,0.0,0.0,37,0.00,,CLR,0.00,VWS V14.01,2013-08-23 06:33:00,
2013-08-23 01:39:00,58.1,32.7,30.05,East,101,0.0,0.0,38,0.00,,CLR,0.00,VWS V14.01,2013-08-23 06:39:00,
2013-08-23 01:44:00,57.7,32.3,30.05,East,101,0.0,0.0,38,0.00,,CLR,0.00,VWS V14.01,2013-08-23 06:44:00,
2013-08-23 01:49:00,57.6,32.8,30.05,East,101,0.0,0.0,39,0.00,,CLR,0.00,VWS V14.01,2013-08-23 06:49:00,
2013-08-23 01:54:00,57.2,32.5,30.05,East,101,0.0,0.0,39,0.00,,CLR,0.00,VWS V14.01,2013-08-23 06:54:00,
2013-08-23 01:59:00,57.2,33.1,30.05,East,101,0.0,0.0,40,0.00,,CLR,0.00,VWS V14.01,2013-08-23 06:59:00,
2013-08-23 02:04:00,56.8,33.4,30.05,East,101,0.0,0.0,41,0.00,,CLR,0.00,VWS V14.01,2013-08-23 07:04:00,
2013-08-23 02:09:00,56.8,33.4,30.05,East,101,0.0,0.0,41,0.00,,CLR,0.00,VWS V14.01,2013-08-23 07:09:00,
2013-08-23 02:15:00,56.7,33.8,30.05,East,101,0.0,0.0,42,0.00,,CLR,0.00,VWS V14.01,2013-08-23 07:15:00,
2013-08-23 02:21:00,56.7,34.4,30.05,East,101,0.0,0.0,43,0.00,,CLR,0.00,VWS V14.01,2013-08-23 07:21:00,
2013-08-23 02:26:00,56.5,34.3,30.05,East,101,0.0,0.0,43,0.00,,CLR,0.00,VWS V14.01,2013-08-23 07:26:00,
2013-08-23 02:32:00,56.3,34.7,30.05,East,101,0.0,0.0,44,0.00,,CLR,0.00,VWS V14.01,2013-08-23 07:32:00,
2013-08-23 02:37:00,56.1,35.1,30.05,East,101,0.0,0.0,45,0.00,,CLR,0.00,VWS V14.01,2013-08-23 07:37:00,
2013-08-23 02:42:00,56.1,35.1,30.05,East,101,0.0,0.0,45,0.00,,CLR,0.00,VWS V14.01,2013-08-23 07:42:00,
2013-08-23 02:47:00,55.9,34.9,30.05,East,101,0.0,0.0,45,0.00,,CLR,0.00,VWS V14.01,2013-08-23 07:47:00,
2013-08-23 02:53:00,55.8,35.3,30.05,East,101,0.0,0.0,46,0.00,,CLR,0.00,VWS V14.01,2013-08-23 07:53:00,
2013-08-23 02:58:00,55.8,35.3,30.05,East,101,0.0,0.0,46,0.00,,CLR,0.00,VWS V14.01,2013-08-23 07:58:00,
2013-08-23 03:04:00,55.6,35.2,30.05,East,101,0.0,0.0,46,0.00,,CLR,0.00,VWS V14.01,2013-08-23 08:04:00,
2013-08-23 03:10:00,55.6,35.7,30.05,East,101,0.0,0.0,47,0.00,,CLR,0.00,VWS V14.01,2013-08-23 08:10:00,
2013-08-23 03:15:00,55.6,35.7,30.05,East,101,0.0,0.0,47,0.00,,CLR,0.00,VWS V14.01,2013-08-23 08:15:00,
2013-08-23 03:20:00,55.6,35.7,30.05,East,101,0.0,0.0,47,0.00,,CLR,0.00,VWS V14.01,2013-08-23 08:20:00,
2013-08-23 03:25:00,55.6,35.7,30.05,East,101,0.0,0.0,47,0.00,,CLR,0.00,VWS V14.01,2013-08-23 08:25:00,
2013-08-23 03:31:00,55.6,35.7,30.05,East,101,0.0,0.0,47,0.00,,CLR,0.00,VWS V14.01,2013-08-23 08:31:00,
2013-08-23 03:36:00,55.8,35.8,30.05,East,101,0.0,0.0,47,0.00,,CLR,0.00,VWS V14.01,2013-08-23 08:36:00,
2013-08-23 03:41:00,55.8,36.4,30.05,East,101,0.0,0.0,48,0.00,,CLR,0.00,VWS V14.01,2013-08-23 08:41:00,
2013-08-23 03:46:00,55.8,36.4,30.05,East,101,0.0,0.0,48,0.00,,CLR,0.00,VWS V14.01,2013-08-23 08:46:00,
2013-08-23 03:52:00,55.6,36.2,30.05,East,101,0.0,0.0,48,0.00,,CLR,0.00,VWS V14.01,2013-08-23 08:52:00,
2013-08-23 03:57:00,55.6,36.2,30.05,East,101,0.0,0.0,48,0.00,,CLR,0.00,VWS V14.01,2013-08-23 08:57:00,
2013-08-23 04:02:00,55.6,36.2,30.05,East,101,0.0,0.0,48,0.00,,CLR,0.00,VWS V14.01,2013-08-23 09:02:00,
2013-08-23 04:07:00,55.6,36.2,30.05,East,101,0.0,0.0,48,0.00,,CLR,0.00,VWS V14.01,2013-08-23 09:07:00,
2013-08-23 04:12:00,55.4,36.1,30.05,East,101,0.0,0.0,48,0.00,,CLR,0.00,VWS V14.01,2013-08-23 09:12:00,
2013-08-23 04:17:00,55.4,36.1,30.05,East,101,0.0,0.0,48,0.00,,CLR,0.00,VWS V14.01,2013-08-23 09:17:00,
2013-08-23 04:22:00,55.8,36.4,30.05,East,101,0.0,0.0,48,0.00,,CLR,0.00,VWS V14.01,2013-08-23 09:22:00,
2013-08-23 04:28:00,56.3,36.9,30.05,East,101,0.0,0.0,48,0.00,,CLR,0.00,VWS V14.01,2013-08-23 09:28:00,
2013-08-23 04:33:00,56.5,36.5,30.05,East,101,0.0,0.0,47,0.00,,CLR,0.00,VWS V14.01,2013-08-23 09:33:00,
2013-08-23 04:39:00,56.5,36.5,30.05,East,101,0.0,0.0,47,0.00,,CLR,0.00,VWS V14.01,2013-08-23 09:39:00,
2013-08-23 04:45:00,56.7,36.7,30.05,East,101,0.0,0.0,47,0.00,,CLR,0.00,VWS V14.01,2013-08-23 09:45:00,
2013-08-23 04:50:00,56.7,36.1,30.05,East,101,0.0,0.0,46,0.00,,CLR,0.00,VWS V14.01,2013-08-23 09:50:00,
2013-08-23 04:55:00,56.8,36.3,30.05,East,101,0.0,0.0,46,0.00,,CLR,0.00,VWS V14.01,2013-08-23 09:55:00,
2013-08-23 05:00:00,56.7,36.1,30.05,East,101,0.0,0.0,46,0.00,,CLR,0.00,VWS V14.01,2013-08-23 10:00:00,
2013-08-23 05:06:00,56.5,36.0,30.05,East,101,0.0,0.0,46,0.00,,CLR,0.00,VWS V14.01,2013-08-23 10:06:00,
2013-08-23 05:11:00,56.7,36.1,30.05,East,101,0.0,0.0,46,0.00,,CLR,0.00,VWS V14.01,2013-08-23 10:11:00,
2013-08-23 05:17:00,56.7,36.1,30.05,East,101,2.2,2.7,46,0.00,,CLR,0.00,VWS V14.01,2013-08-23 10:17:00,
2013-08-23 05:23:00,57.0,36.5,30.05,East,101,0.0,0.0,46,0.00,,CLR,0.00,VWS V14.01,2013-08-23 10:23:00,
2013-08-23 05:28:00,57.6,36.4,30.05,East,101,0.0,0.0,45,0.00,,CLR,0.00,VWS V14.01,2013-08-23 10:28:00,
2013-08-23 05:33:00,57.9,36.7,30.08,East,101,0.0,0.0,45,0.00,,CLR,0.00,VWS V14.01,2013-08-23 10:33:00,
2013-08-23 05:38:00,58.3,37.0,30.08,East,101,0.0,0.0,45,0.00,,CLR,0.00,VWS V14.01,2013-08-23 10:38:00,
2013-08-23 05:44:00,58.6,37.4,30.08,East,101,0.0,0.0,45,0.00,,CLR,0.00,VWS V14.01,2013-08-23 10:44:00,
2013-08-23 05:49:00,58.6,37.4,30.08,East,101,0.0,0.0,45,0.00,,CLR,0.00,VWS V14.01,2013-08-23 10:49:00,
2013-08-23 05:55:00,58.8,37.0,30.08,East,101,0.0,0.0,44,0.00,,CLR,0.00,VWS V14.01,2013-08-23 10:55:00,
2013-08-23 06:01:00,59.0,36.6,30.08,East,101,0.0,0.0,43,0.00,,CLR,0.00,VWS V14.01,2013-08-23 11:01:00,
2013-08-23 06:06:00,59.0,36.6,30.08,East,101,0.0,0.0,43,0.00,,CLR,0.00,VWS V14.01,2013-08-23 11:06:00,
2013-08-23 06:11:00,59.0,36.6,30.08,East,101,0.0,0.0,43,0.00,,CLR,0.00,VWS V14.01,2013-08-23 11:11:00,
2013-08-23 06:16:00,59.0,36.6,30.08,East,101,0.0,0.0,43,0.00,,CLR,0.00,VWS V14.01,2013-08-23 11:16:00,
2013-08-23 06:22:00,59.0,36.0,30.08,East,100,0.0,0.0,42,0.00,,CLR,0.00,VWS V14.01,2013-08-23 11:22:00,
2013-08-23 06:27:00,59.0,36.0,30.08,East,100,0.0,0.0,42,0.00,,CLR,0.00,VWS V14.01,2013-08-23 11:27:00,
2013-08-23 06:32:00,59.2,36.1,30.08,East,100,0.0,0.0,42,0.00,,CLR,0.00,VWS V14.01,2013-08-23 11:32:00,
2013-08-23 06:37:00,59.2,36.1,30.08,East,100,0.0,0.0,42,0.00,,CLR,0.00,VWS V14.01,2013-08-23 11:37:00,
2013-08-23 06:42:00,59.2,36.1,30.08,East,100,0.0,0.0,42,0.00,,CLR,0.00,VWS V14.01,2013-08-23 11:42:00,
2013-08-23 06:48:00,59.4,36.9,30.08,East,99,0.0,0.0,43,0.00,,CLR,0.00,VWS V14.01,2013-08-23 11:48:00,
2013-08-23 06:53:00,59.5,37.0,30.08,East,100,0.0,0.0,43,0.00,,CLR,0.00,VWS V14.01,2013-08-23 11:53:00,
2013-08-23 06:58:00,59.7,37.2,30.08,East,100,0.0,0.0,43,0.00,,CLR,0.00,VWS V14.01,2013-08-23 11:58:00,
2013-08-23 07:04:00,60.1,37.5,30.08,East,99,0.0,0.0,43,0.00,,CLR,0.00,VWS V14.01,2013-08-23 12:04:00,
2013-08-23 07:09:00,60.1,37.5,30.08,East,96,0.0,0.0,43,0.00,,CLR,0.00,VWS V14.01,2013-08-23 12:09:00,
2013-08-23 07:15:00,60.1,37.5,30.08,East,96,0.0,0.0,43,0.00,,CLR,0.00,VWS V14.01,2013-08-23 12:15:00,
2013-08-23 07:20:00,60.3,38.3,30.11,East,96,0.0,0.0,44,0.00,,CLR,0.00,VWS V14.01,2013-08-23 12:20:00,
2013-08-23 07:25:00,60.4,38.4,30.11,ENE,78,0.0,0.0,44,0.00,,CLR,0.00,VWS V14.01,2013-08-23 12:25:00,
2013-08-23 07:30:00,60.6,38.6,30.11,ENE,78,0.0,0.0,44,0.00,,CLR,0.00,VWS V14.01,2013-08-23 12:30:00,
2013-08-23 07:35:00,61.0,38.9,30.11,ENE,78,0.0,0.0,44,0.00,,CLR,0.00,VWS V14.01,2013-08-23 12:35:00,
2013-08-23 07:40:00,61.3,39.3,30.11,ENE,78,0.0,0.0,44,0.00,,CLR,0.00,VWS V14.01,2013-08-23 12:40:00,
2013-08-23 07:45:00,61.5,40.0,30.11,ENE,78,0.0,0.0,45,0.00,,CLR,0.00,VWS V14.01,2013-08-23 12:45:00,
2013-08-23 07:51:00,61.9,40.3,30.11,ENE,78,0.0,0.0,45,0.00,,CLR,0.00,VWS V14.01,2013-08-23 12:51:00,
2013-08-23 07:56:00,62.2,40.7,30.11,ENE,78,0.0,0.0,45,0.00,,CLR,0.00,VWS V14.01,2013-08-23 12:56:00,
2013-08-23 08:01:00,62.6,41.0,30.11,ENE,78,0.0,0.0,45,0.00,,FEW070,0.00,VWS V14.01,2013-08-23 13:01:00,
2013-08-23 08:06:00,63.1,42.0,30.11,NNE,14,0.0,2.7,46,0.00,,FEW070,0.00,VWS V14.01,2013-08-23 13:06:00,
2013-08-23 08:12:00,63.5,42.9,30.11,East,90,0.0,0.0,47,0.00,,FEW070,0.00,VWS V14.01,2013-08-23 13:12:00,
2013-08-23 08:18:00,64.0,43.4,30.11,East,83,0.0,0.0,47,0.00,,FEW070,0.00,VWS V14.01,2013-08-23 13:18:00,
2013-08-23 08:23:00,64.6,43.9,30.11,ESE,102,0.0,0.0,47,0.00,,FEW070,0.00,VWS V14.01,2013-08-23 13:23:00,
2013-08-23 08:28:00,64.9,44.2,30.11,East,86,0.0,0.0,47,0.00,,FEW070,0.00,VWS V14.01,2013-08-23 13:28:00,
2013-08-23 08:34:00,65.5,44.7,30.11,ENE,63,0.0,0.0,47,0.00,,FEW070,0.00,VWS V14.01,2013-08-23 13:34:00,
2013-08-23 08:39:00,65.8,45.1,30.11,East,99,0.0,0.0,47,0.00,,FEW070,0.00,VWS V14.01,2013-08-23 13:39:00,
2013-08-23 08:45:00,66.2,44.8,30.11,ESE,102,6.3,6.3,46,0.00,,FEW070,0.00,VWS V14.01,2013-08-23 13:45:00,
2013-08-23 08:50:00,66.6,45.2,30.11,ESE,116,3.1,3.6,46,0.00,,FEW070,0.00,VWS V14.01,2013-08-23 13:50:00,
2013-08-23 08:56:00,67.1,45.1,30.11,ESE,110,3.6,6.3,45,0.00,,FEW070,0.00,VWS V14.01,2013-08-23 13:56:00,
2013-08-23 09:01:00,67.3,45.2,30.11,NE,37,4.0,4.9,45,0.00,,CLR,0.00,VWS V14.01,2013-08-23 14:01:00,
2013-08-23 09:06:00,67.6,45.0,30.11,SE,136,0.0,2.2,44,0.00,,CLR,0.00,VWS V14.01,2013-08-23 14:06:00,
2013-08-23 09:11:00,68.0,44.1,30.11,NE,56,4.9,4.9,42,0.00,,CLR,0.00,VWS V14.01,2013-08-23 14:11:00,
2013-08-23 09:17:00,68.4,43.1,30.11,ENE,69,3.6,5.8,40,0.00,,CLR,0.00,VWS V14.01,2013-08-23 14:17:00,
2013-08-23 09:23:00,68.7,42.8,30.11,ESE,116,4.0,5.4,39,0.00,,CLR,0.00,VWS V14.01,2013-08-23 14:23:00,
2013-08-23 09:28:00,69.1,43.1,30.11,ESE,120,0.0,0.0,39,0.00,,CLR,0.00,VWS V14.01,2013-08-23 14:28:00,
2013-08-23 09:34:00,69.4,39.9,30.11,SE,146,2.2,3.1,34,0.00,,CLR,0.00,VWS V14.01,2013-08-23 14:34:00,
2013-08-23 09:40:00,70.0,40.3,30.11,East,85,3.1,3.6,34,0.00,,CLR,0.00,VWS V14.01,2013-08-23 14:40:00,
2013-08-23 09:45:00,70.3,40.7,30.11,East,81,0.0,5.4,34,0.00,,CLR,0.00,VWS V14.01,2013-08-23 14:45:00,
2013-08-23 09:51:00,70.7,40.2,30.11,East,93,3.1,3.1,33,0.00,,CLR,0.00,VWS V14.01,2013-08-23 14:51:00,
2013-08-23 09:56:00,71.1,39.7,30.11,NE,52,2.7,4.9,32,0.00,,CLR,0.00,VWS V14.01,2013-08-23 14:56:00,
2013-08-23 10:02:00,71.4,38.4,30.11,ESE,106,3.1,6.3,30,0.00,,CLR,0.00,VWS V14.01,2013-08-23 15:02:00,
2013-08-23 10:08:00,72.0,38.0,30.11,East,99,2.7,5.8,29,0.00,,CLR,0.00,VWS V14.01,2013-08-23 15:08:00,
2013-08-23 10:13:00,72.3,36.5,30.11,SSE,154,0.0,2.2,27,0.00,,CLR,0.00,VWS V14.01,2013-08-23 15:13:00,
2013-08-23 10:19:00,72.9,36.0,30.11,NE,49,0.0,5.8,26,0.00,,CLR,0.00,VWS V14.01,2013-08-23 15:19:00,
2013-08-23 10:25:00,73.2,34.3,30.11,South,184,3.1,5.8,24,0.00,,CLR,0.00,VWS V14.01,2013-08-23 15:25:00,
2013-08-23 10:30:00,73.6,34.6,30.11,East,101,6.3,6.3,24,0.00,,CLR,0.00,VWS V14.01,2013-08-23 15:30:00,
2013-08-23 10:35:00,73.8,32.6,30.11,SSW,194,5.4,5.8,22,0.00,,CLR,0.00,VWS V14.01,2013-08-23 15:35:00,
2013-08-23 10:40:00,73.8,33.7,30.11,SSE,154,3.6,4.9,23,0.00,,CLR,0.00,VWS V14.01,2013-08-23 15:40:00,
2013-08-23 10:45:00,73.9,33.8,30.11,ESE,114,4.0,6.3,23,0.00,,CLR,0.00,VWS V14.01,2013-08-23 15:45:00,
2013-08-23 10:51:00,74.3,34.1,30.11,ESE,114,5.4,5.4,23,0.00,,CLR,0.00,VWS V14.01,2013-08-23 15:51:00,
2013-08-23 10:56:00,74.7,34.4,30.11,SW,224,0.0,3.1,23,0.00,,CLR,0.00,VWS V14.01,2013-08-23 15:56:00,
2013-08-23 11:01:00,75.0,34.7,30.11,ESE,115,2.7,3.6,23,0.00,,CLR,0.00,VWS V14.01,2013-08-23 16:01:00,
2013-08-23 11:07:00,75.4,33.9,30.11,SE,124,0.0,0.0,22,0.00,,CLR,0.00,VWS V14.01,2013-08-23 16:07:00,
2013-08-23 11:12:00,75.7,35.3,30.11,ESE,105,5.8,5.8,23,0.00,,CLR,0.00,VWS V14.01,2013-08-23 16:12:00,
2013-08-23 11:18:00,76.1,34.5,30.11,East,90,0.0,0.0,22,0.00,,CLR,0.00,VWS V14.01,2013-08-23 16:18:00,
2013-08-23 11:23:00,76.5,34.8,30.11,SSE,148,2.2,6.3,22,0.00,,CLR,0.00,VWS V14.01,2013-08-23 16:23:00,
2013-08-23 11:29:00,76.5,33.7,30.11,South,190,0.0,0.0,21,0.00,,CLR,0.00,VWS V14.01,2013-08-23 16:29:00,
2013-08-23 11:34:00,76.3,33.5,30.08,SSE,165,3.1,3.1,21,0.00,,CLR,0.00,VWS V14.01,2013-08-23 16:34:00,
2013-08-23 11:40:00,76.6,33.8,30.08,SSE,166,0.0,3.1,21,0.00,,CLR,0.00,VWS V14.01,2013-08-23 16:40:00,
2013-08-23 11:45:00,76.8,34.0,30.08,SE,132,0.0,3.6,21,0.00,,CLR,0.00,VWS V14.01,2013-08-23 16:45:00,
2013-08-23 11:51:00,77.2,33.0,30.08,East,97,4.0,4.0,20,0.00,,CLR,0.00,VWS V14.01,2013-08-23 16:51:00,
2013-08-23 11:56:00,77.5,33.3,30.08,South,170,0.0,4.9,20,0.00,,CLR,0.00,VWS V14.01,2013-08-23 16:56:00,
2013-08-23 12:01:00,77.4,33.2,30.08,ESE,106,2.7,4.0,20,0.00,,CLR,0.00,VWS V14.01,2013-08-23 17:01:00,
2013-08-23 12:07:00,77.9,33.6,30.08,SW,234,4.0,4.0,20,0.00,,CLR,0.00,VWS V14.01,2013-08-23 17:07:00,
2013-08-23 12:12:00,78.1,33.8,30.08,ESE,123,0.0,4.0,20,0.00,,CLR,0.00,VWS V14.01,2013-08-23 17:12:00,
2013-08-23 12:18:00,78.4,34.1,30.08,SSW,208,2.7,3.6,20,0.00,,CLR,0.00,VWS V14.01,2013-08-23 17:18:00,
2013-08-23 12:24:00,78.8,34.4,30.08,SW,230,2.2,4.9,20,0.00,,CLR,0.00,VWS V14.01,2013-08-23 17:24:00,
2013-08-23 12:29:00,79.0,34.5,30.08,SE,143,5.4,6.3,20,0.00,,CLR,0.00,VWS V14.01,2013-08-23 17:29:00,
2013-08-23 12:34:00,79.3,34.8,30.08,SE,124,7.6,7.6,20,0.00,,CLR,0.00,VWS V14.01,2013-08-23 17:34:00,
2013-08-23 12:39:00,79.7,35.1,30.08,ESE,102,5.4,5.4,20,0.00,,CLR,0.00,VWS V14.01,2013-08-23 17:39:00,
2013-08-23 12:45:00,80.2,31.5,30.08,SW,231,0.0,3.1,17,0.00,,CLR,0.00,VWS V14.01,2013-08-23 17:45:00,
2013-08-23 12:50:00,80.2,35.6,30.08,ESE,102,3.6,6.3,20,0.00,,CLR,0.00,VWS V14.01,2013-08-23 17:50:00,
2013-08-23 12:56:00,80.6,31.8,30.08,East,95,0.0,2.2,17,0.00,,CLR,0.00,VWS V14.01,2013-08-23 17:56:00,
2013-08-23 13:01:00,81.0,32.1,30.08,ESE,113,4.9,4.9,17,0.00,,CLR,0.00,VWS V14.01,2013-08-23 18:01:00,
2013-08-23 13:07:00,81.3,32.4,30.08,SSE,147,0.0,7.2,17,0.00,,CLR,0.00,VWS V14.01,2013-08-23 18:07:00,
2013-08-23 13:13:00,81.7,32.7,30.08,East,97,2.7,4.9,17,0.00,,CLR,0.00,VWS V14.01,2013-08-23 18:13:00,
2013-08-23 13:19:00,82.0,33.0,30.08,South,184,5.8,6.3,17,0.00,,CLR,0.00,VWS V14.01,2013-08-23 18:19:00,
2013-08-23 13:25:00,81.1,32.2,30.08,SE,145,5.4,5.4,17,0.00,,CLR,0.00,VWS V14.01,2013-08-23 18:25:00,
2013-08-23 13:31:00,81.0,32.1,30.08,SSW,202,2.7,7.2,17,0.00,,CLR,0.00,VWS V14.01,2013-08-23 18:31:00,
2013-08-23 13:36:00,81.0,32.1,30.08,SSW,213,0.0,0.0,17,0.00,,CLR,0.00,VWS V14.01,2013-08-23 18:36:00,
2013-08-23 13:41:00,81.1,32.2,30.08,WSW,239,4.9,4.9,17,0.00,,CLR,0.00,VWS V14.01,2013-08-23 18:41:00,
2013-08-23 13:46:00,80.8,32.0,30.08,SSE,166,3.6,4.0,17,0.00,,CLR,0.00,VWS V14.01,2013-08-23 18:46:00,
2013-08-23 13:52:00,80.4,31.7,30.08,South,183,2.7,3.1,17,0.00,,CLR,0.00,VWS V14.01,2013-08-23 18:52:00,
2013-08-23 13:57:00,80.8,32.0,30.08,East,86,0.0,3.6,17,0.00,,CLR,0.00,VWS V14.01,2013-08-23 18:57:00,
2013-08-23 14:02:00,81.3,32.4,30.08,South,178,2.7,5.4,17,0.00,,CLR,0.00,VWS V14.01,2013-08-23 19:02:00,
2013-08-23 14:07:00,82.0,33.0,30.08,SSE,155,3.1,5.8,17,0.00,,CLR,0.00,VWS V14.01,2013-08-23 19:07:00,
2013-08-23 14:12:00,82.6,31.9,30.08,South,177,0.0,5.8,16,0.00,,CLR,0.00,VWS V14.01,2013-08-23 19:12:00,
2013-08-23 14:18:00,83.1,32.3,30.08,SSW,204,2.2,4.0,16,0.00,,CLR,0.00,VWS V14.01,2013-08-23 19:18:00,
2013-08-23 14:23:00,82.8,32.0,30.08,ESE,106,0.0,0.0,16,0.00,,CLR,0.00,VWS V14.01,2013-08-23 19:23:00,
2013-08-23 14:28:00,82.6,31.9,30.08,ESE,122,2.2,4.9,16,0.00,,CLR,0.00,VWS V14.01,2013-08-23 19:28:00,
2013-08-23 14:34:00,82.4,31.8,30.05,SSW,205,7.6,7.6,16,0.00,,CLR,0.00,VWS V14.01,2013-08-23 19:34:00,
2013-08-23 14:39:00,82.0,33.0,30.05,WSW,258,3.1,3.1,17,0.00,,CLR,0.00,VWS V14.01,2013-08-23 19:39:00,
2013-08-23 14:45:00,81.3,32.4,30.05,SSW,207,0.0,5.4,17,0.00,,CLR,0.00,VWS V14.01,2013-08-23 19:45:00,
2013-08-23 14:50:00,81.9,32.8,30.05,East,98,0.0,0.0,17,0.00,,CLR,0.00,VWS V14.01,2013-08-23 19:50:00,
2013-08-23 14:56:00,82.9,32.2,30.05,South,176,0.0,0.0,16,0.00,,CLR,0.00,VWS V14.01,2013-08-23 19:56:00,
2013-08-23 15:01:00,83.3,32.5,30.05,SW,227,2.2,4.9,16,0.00,,BKN050,0.00,VWS V14.01,2013-08-23 20:01:00,
2013-08-23 15:06:00,82.8,32.0,30.05,ESE,110,2.2,5.4,16,0.00,,BKN050,0.00,VWS V14.01,2013-08-23 20:06:00,
2013-08-23 15:11:00,82.9,32.2,30.05,SE,134,3.1,5.8,16,0.00,,BKN050,0.00,VWS V14.01,2013-08-23 20:11:00,
2013-08-23 15:17:00,82.2,33.1,30.05,South,183,3.6,5.4,17,0.00,,BKN050,0.00,VWS V14.01,2013-08-23 20:17:00,
2013-08-23 15:22:00,80.8,32.0,30.05,WNW,285,0.0,0.0,17,0.00,,BKN050,0.00,VWS V14.01,2013-08-23 20:22:00,
2013-08-23 15:28:00,80.8,32.0,30.05,SSW,206,2.7,3.1,17,0.00,,BKN050,0.00,VWS V14.01,2013-08-23 20:28:00,
2013-08-23 15:33:00,81.0,32.1,30.05,SSE,160,3.6,5.4,17,0.00,,BKN050,0.00,VWS V14.01,2013-08-23 20:33:00,
2013-08-23 15:39:00,81.0,32.1,30.05,East,91,6.3,6.3,17,0.00,,BKN050,0.00,VWS V14.01,2013-08-23 20:39:00,
2013-08-23 15:45:00,82.2,33.1,30.05,East,99,3.1,4.0,17,0.00,,BKN050,0.00,VWS V14.01,2013-08-23 20:45:00,
2013-08-23 15:51:00,83.1,32.3,30.05,South,173,3.6,5.4,16,0.00,,BKN050,0.00,VWS V14.01,2013-08-23 20:51:00,
2013-08-23 15:56:00,83.7,32.8,30.05,SW,225,0.0,5.4,16,0.00,,BKN050,0.00,VWS V14.01,2013-08-23 20:56:00,
2013-08-23 16:02:00,84.4,33.3,30.05,South,170,3.6,4.0,16,0.00,,SCT055,0.00,VWS V14.01,2013-08-23 21:02:00,
2013-08-23 16:07:00,84.9,33.8,30.05,West,259,0.0,0.0,16,0.00,,SCT055,0.00,VWS V14.01,2013-08-23 21:07:00,
2013-08-23 16:13:00,83.8,32.9,30.05,WSW,254,0.0,0.0,16,0.00,,SCT055,0.00,VWS V14.01,2013-08-23 21:13:00,
2013-08-23 16:19:00,83.8,32.9,30.05,ESE,110,4.0,4.0,16,0.00,,SCT055,0.00,VWS V14.01,2013-08-23 21:19:00,
2013-08-23 16:24:00,84.6,33.5,30.05,South,169,3.1,5.4,16,0.00,,SCT055,0.00,VWS V14.01,2013-08-23 21:24:00,
2013-08-23 16:29:00,84.9,33.8,30.05,SW,233,0.0,0.0,16,0.00,,SCT055,0.00,VWS V14.01,2013-08-23 21:29:00,
2013-08-23 16:34:00,85.1,33.9,30.05,WSW,245,0.0,4.0,16,0.00,,SCT055,0.00,VWS V14.01,2013-08-23 21:34:00,
2013-08-23 16:39:00,84.6,33.5,30.05,SW,232,0.0,0.0,16,0.00,,SCT055,0.00,VWS V14.01,2013-08-23 21:39:00,
2013-08-23 16:45:00,84.7,33.6,30.05,ESE,106,2.7,5.4,16,0.00,,SCT055,0.00,VWS V14.01,2013-08-23 21:45:00,
2013-08-23 16:51:00,85.6,34.3,30.05,ESE,115,0.0,0.0,16,0.00,,SCT055,0.00,VWS V14.01,2013-08-23 21:51:00,
2013-08-23 16:57:00,86.7,35.2,30.05,SSW,212,0.0,0.0,16,0.00,,SCT055,0.00,VWS V14.01,2013-08-23 21:57:00,
2013-08-23 17:02:00,86.9,35.3,30.05,SSE,160,3.1,4.0,16,0.00,,CLR,0.00,VWS V14.01,2013-08-23 22:02:00,
2013-08-23 17:07:00,86.0,34.6,30.05,South,181,2.7,3.6,16,0.00,,CLR,0.00,VWS V14.01,2013-08-23 22:07:00,
2013-08-23 17:12:00,84.7,33.6,30.05,SSW,207,0.0,2.7,16,0.00,,CLR,0.00,VWS V14.01,2013-08-23 22:12:00,
2013-08-23 17:18:00,85.1,33.9,30.05,East,96,0.0,0.0,16,0.00,,CLR,0.00,VWS V14.01,2013-08-23 22:18:00,
2013-08-23 17:23:00,84.9,33.8,30.05,SE,124,0.0,0.0,16,0.00,,CLR,0.00,VWS V14.01,2013-08-23 22:23:00,
2013-08-23 17:29:00,85.5,34.2,30.05,SE,126,2.2,3.6,16,0.00,,CLR,0.00,VWS V14.01,2013-08-23 22:29:00,
2013-08-23 17:35:00,86.4,34.9,30.05,South,173,2.2,4.0,16,0.00,,CLR,0.00,VWS V14.01,2013-08-23 22:35:00,
2013-08-23 17:40:00,86.2,34.8,30.05,South,176,0.0,0.0,16,0.00,,CLR,0.00,VWS V14.01,2013-08-23 22:40:00,
2013-08-23 17:45:00,86.0,34.6,30.05,SE,144,2.7,3.1,16,0.00,,CLR,0.00,VWS V14.01,2013-08-23 22:45:00,
2013-08-23 17:50:00,86.2,34.8,30.05,East,92,4.0,4.0,16,0.00,,CLR,0.00,VWS V14.01,2013-08-23 22:50:00,
2013-08-23 17:56:00,85.6,34.3,30.05,ESE,123,6.3,6.3,16,0.00,,CLR,0.00,VWS V14.01,2013-08-23 22:56:00,
2013-08-23 18:01:00,84.4,33.3,30.05,ESE,109,4.0,5.8,16,0.00,,CLR,0.00,VWS V14.01,2013-08-23 23:01:00,
2013-08-23 18:06:00,83.3,32.5,30.05,South,176,5.4,7.6,16,0.00,,CLR,0.00,VWS V14.01,2013-08-23 23:06:00,
2013-08-23 18:12:00,81.9,32.8,30.05,East,100,4.0,5.4,17,0.00,,CLR,0.00,VWS V14.01,2013-08-23 23:12:00,
2013-08-23 18:17:00,80.8,32.0,30.05,ESE,107,4.0,4.0,17,0.00,,CLR,0.00,VWS V14.01,2013-08-23 23:17:00,
2013-08-23 18:22:00,79.9,31.2,30.05,East,93,5.8,5.8,17,0.00,,CLR,0.00,VWS V14.01,2013-08-23 23:22:00,
2013-08-23 18:28:00,79.0,30.5,30.05,ESE,115,6.3,6.3,17,0.00,,CLR,0.00,VWS V14.01,2013-08-23 23:28:00,
2013-08-23 18:33:00,78.1,33.8,30.05,East,93,6.3,6.3,20,0.00,,CLR,0.00,VWS V14.01,2013-08-23 23:33:00,
2013-08-23 18:39:00,77.4,33.2,30.05,SE,137,5.8,5.8,20,0.00,,CLR,0.00,VWS V14.01,2013-08-23 23:39:00,
2013-08-23 18:44:00,76.8,32.8,30.05,SE,125,3.1,5.4,20,0.00,,CLR,0.00,VWS V14.01,2013-08-23 23:44:00,
2013-08-23 18:50:00,76.3,33.5,30.05,ESE,107,3.1,6.3,21,0.00,,CLR,0.00,VWS V14.01,2013-08-23 23:50:00,
2013-08-23 18:56:00,75.9,33.2,30.05,SE,136,2.7,4.0,21,0.00,,CLR,0.00,VWS V14.01,2013-08-23 23:56:00,
2013-08-23 19:01:00,75.6,32.9,30.05,SSE,156,3.6,4.9,21,0.00,,CLR,0.00,VWS V14.01,2013-08-24 00:01:00,
2013-08-23 19:06:00,75.2,32.6,30.05,SE,130,0.0,0.0,21,0.00,,CLR,0.00,VWS V14.01,2013-08-24 00:06:00,
2013-08-23 19:11:00,74.8,32.3,30.05,SE,126,2.2,3.1,21,0.00,,CLR,0.00,VWS V14.01,2013-08-24 00:11:00,
2013-08-23 19:17:00,74.5,33.2,30.05,SE,124,4.9,4.9,22,0.00,,CLR,0.00,VWS V14.01,2013-08-24 00:17:00,
2013-08-23 19:22:00,74.1,32.9,30.05,SE,132,3.1,3.1,22,0.00,,CLR,0.00,VWS V14.01,2013-08-24 00:22:00,
2013-08-23 19:27:00,73.6,32.4,30.05,ESE,102,3.1,4.0,22,0.00,,CLR,0.00,VWS V14.01,2013-08-24 00:27:00,
2013-08-23 19:32:00,73.2,32.1,30.05,SE,139,4.0,4.0,22,0.00,,CLR,0.00,VWS V14.01,2013-08-24 00:32:00,
2013-08-23 19:38:00,72.7,32.8,30.05,SE,141,3.1,3.1,23,0.00,,CLR,0.00,VWS V14.01,2013-08-24 00:38:00,
2013-08-23 19:43:00,72.3,32.5,30.05,ESE,113,4.0,4.0,23,0.00,,CLR,0.00,VWS V14.01,2013-08-24 00:43:00,
2013-08-23 19:48:00,72.0,32.2,30.05,ESE,109,0.0,0.0,23,0.00,,CLR,0.00,VWS V14.01,2013-08-24 00:48:00,
2013-08-23 19:54:00,71.6,31.9,30.05,ESE,111,0.0,0.0,23,0.00,,CLR,0.00,VWS V14.01,2013-08-24 00:54:00,
2013-08-23 20:00:00,71.2,32.6,30.05,SE,124,4.9,4.9,24,0.00,,CLR,0.00,VWS V14.01,2013-08-24 01:00:00,
2013-08-23 20:06:00,70.7,32.2,30.05,SE,131,2.7,2.7,24,0.00,,CLR,0.00,VWS V14.01,2013-08-24 01:06:00,
2013-08-23 20:11:00,70.5,32.0,30.05,ESE,113,4.0,4.9,24,0.00,,CLR,0.00,VWS V14.01,2013-08-24 01:11:00,
2013-08-23 20:17:00,70.0,32.6,30.05,ESE,104,0.0,0.0,25,0.00,,CLR,0.00,VWS V14.01,2013-08-24 01:17:00,
2013-08-23 20:22:00,69.8,32.4,30.05,SE,136,2.2,4.0,25,0.00,,CLR,0.00,VWS V14.01,2013-08-24 01:22:00,
2013-08-23 20:28:00,69.4,33.1,30.05,ESE,102,0.0,0.0,26,0.00,,CLR,0.00,VWS V14.01,2013-08-24 01:28:00,
2013-08-23 20:33:00,69.1,32.8,30.05,ESE,120,0.0,3.6,26,0.00,,CLR,0.00,VWS V14.01,2013-08-24 01:33:00,
2013-08-23 20:38:00,68.9,33.6,30.05,ESE,115,0.0,3.1,27,0.00,,CLR,0.00,VWS V14.01,2013-08-24 01:38:00,
2013-08-23 20:44:00,68.7,33.4,30.05,East,92,0.0,0.0,27,0.00,,CLR,0.00,VWS V14.01,2013-08-24 01:44:00,
2013-08-23 20:49:00,68.5,34.2,30.05,SE,133,0.0,5.4,28,0.00,,CLR,0.00,VWS V14.01,2013-08-24 01:49:00,
2013-08-23 20:55:00,68.2,34.7,30.05,ESE,106,2.2,3.1,29,0.00,,CLR,0.00,VWS V14.01,2013-08-24 01:55:00,
2013-08-23 21:00:00,68.0,35.4,30.05,ESE,111,3.1,4.0,30,0.00,,CLR,0.00,VWS V14.01,2013-08-24 02:00:00,
2013-08-23 21:05:00,67.8,36.1,30.05,SSE,160,0.0,0.0,31,0.00,,CLR,0.00,VWS V14.01,2013-08-24 02:05:00,
2013-08-23 21:10:00,67.6,37.5,30.05,South,170,0.0,0.0,33,0.00,,CLR,0.00,VWS V14.01,2013-08-24 02:10:00,
2013-08-23 21:16:00,67.3,37.2,30.05,ESE,113,0.0,0.0,33,0.00,,CLR,0.00,VWS V14.01,2013-08-24 02:16:00,
2013-08-23 21:21:00,67.1,37.1,30.08,SE,137,0.0,0.0,33,0.00,,CLR,0.00,VWS V14.01,2013-08-24 02:21:00,
2013-08-23 21:26:00,66.9,36.9,30.08,ESE,104,2.7,2.7,33,0.00,,CLR,0.00,VWS V14.01,2013-08-24 02:26:00,
2013-08-23 21:31:00,66.7,36.8,30.08,ESE,117,0.0,0.0,33,0.00,,CLR,0.00,VWS V14.01,2013-08-24 02:31:00,
2013-08-23 21:37:00,66.6,36.6,30.08,ESE,104,0.0,0.0,33,0.00,,CLR,0.00,VWS V14.01,2013-08-24 02:37:00,
2013-08-23 21:42:00,66.2,37.0,30.08,SE,124,0.0,0.0,34,0.00,,CLR,0.00,VWS V14.01,2013-08-24 02:42:00,
2013-08-23 21:48:00,66.0,36.9,30.08,ESE,115,0.0,0.0,34,0.00,,CLR,0.00,VWS V14.01,2013-08-24 02:48:00,
2013-08-23 21:54:00,65.8,37.5,30.08,SSE,149,0.0,0.0,35,0.00,,CLR,0.00,VWS V14.01,2013-08-24 02:54:00,
2013-08-23 21:59:00,65.7,37.3,30.08,SE,133,0.0,0.0,35,0.00,,CLR,0.00,VWS V14.01,2013-08-24 02:59:00,
2013-08-23 22:05:00,65.5,37.1,30.08,SSE,166,0.0,2.7,35,0.00,,CLR,0.00,VWS V14.01,2013-08-24 03:05:00,
2013-08-23 22:10:00,65.3,37.7,30.08,SE,144,0.0,2.7,36,0.00,,CLR,0.00,VWS V14.01,2013-08-24 03:10:00,
2013-08-23 22:16:00,65.1,38.2,30.08,SSE,168,0.0,0.0,37,0.00,,CLR,0.00,VWS V14.01,2013-08-24 03:16:00,
2013-08-23 22:22:00,64.9,39.4,30.08,SSE,148,0.0,0.0,39,0.00,,CLR,0.00,VWS V14.01,2013-08-24 03:22:00,
2013-08-23 22:28:00,64.8,40.5,30.08,SSE,167,3.1,4.0,41,0.00,,CLR,0.00,VWS V14.01,2013-08-24 03:28:00,
2013-08-23 22:34:00,64.4,39.6,30.08,SSE,166,0.0,0.0,40,0.00,,CLR,0.00,VWS V14.01,2013-08-24 03:34:00,
2013-08-23 22:40:00,64.2,41.3,30.08,SSE,156,0.0,0.0,43,0.00,,CLR,0.00,VWS V14.01,2013-08-24 03:40:00,
2013-08-23 22:45:00,64.0,41.1,30.08,SE,134,0.0,0.0,43,0.00,,CLR,0.00,VWS V14.01,2013-08-24 03:45:00,
2013-08-23 22:50:00,63.9,41.5,30.08,SSE,167,0.0,0.0,44,0.00,,CLR,0.00,VWS V14.01,2013-08-24 03:50:00,
2013-08-23 22:55:00,63.9,42.1,30.08,SSE,154,0.0,4.0,45,0.00,,CLR,0.00,VWS V14.01,2013-08-24 03:55:00,
2013-08-23 23:01:00,63.5,41.8,30.08,SSE,164,0.0,0.0,45,0.00,,CLR,0.00,VWS V14.01,2013-08-24 04:01:00,
2013-08-23 23:02:00,63.5,41.8,30.08,SSE,150,0.0,0.0,45,0.00,,CLR,0.00,VWS V14.01,2013-08-24 04:02:00,
2013-08-23 23:04:00,63.5,42.4,30.08,SSE,158,0.0,0.0,46,0.00,,CLR,0.00,VWS V14.01,2013-08-24 04:04:00,
2013-08-23 23:05:00,63.5,42.4,30.08,South,171,0.0,0.0,46,0.00,,CLR,0.00,VWS V14.01,2013-08-24 04:05:00,
2013-08-23 23:11:00,63.3,42.2,30.08,SSE,156,0.0,0.0,46,0.00,,CLR,0.00,VWS V14.01,2013-08-24 04:11:00,
2013-08-23 23:12:00,63.3,42.2,30.08,SSE,156,0.0,0.0,46,0.00,,CLR,0.00,VWS V14.01,2013-08-24 04:12:00,
2013-08-23 23:17:00,63.1,42.6,30.08,SSE,163,0.0,0.0,47,0.00,,CLR,0.00,VWS V14.01,2013-08-24 04:17:00,
2013-08-23 23:23:00,63.1,43.2,30.08,SE,142,0.0,0.0,48,0.00,,CLR,0.00,VWS V14.01,2013-08-24 04:23:00,
2013-08-23 23:29:00,63.0,43.5,30.08,SSE,160,0.0,0.0,49,0.00,,CLR,0.00,VWS V14.01,2013-08-24 04:29:00,
2013-08-23 23:34:00,63.0,43.5,30.08,SSE,148,0.0,0.0,49,0.00,,CLR,0.00,VWS V14.01,2013-08-24 04:34:00,
2013-08-23 23:40:00,62.8,43.4,30.08,SSE,157,0.0,0.0,49,0.00,,CLR,0.00,VWS V14.01,2013-08-24 04:40:00,
2013-08-23 23:46:00,62.6,43.2,30.08,South,171,0.0,0.0,49,0.00,,CLR,0.00,VWS V14.01,2013-08-24 04:46:00,
2013-08-23 23:51:00,62.6,44.2,30.08,SSE,159,0.0,0.0,51,0.00,,CLR,0.00,VWS V14.01,2013-08-24 04:51:00,
2013-08-23 23:57:00,62.6,44.8,30.08,SSE,159,0.0,0.0,52,0.00,,CLR,0.00,VWS V14.01,2013-08-24 04:57:00,